GFSMA_850_dewp_219.txt.gz
Dewpoint
12 11 11 11 11 12 10 7 5 3 -1 -9 1 7 8 9 6 5 4 -1 -1 5 3 -4 -5 -3 -5 -1 -1 -5 -7 -7 -7 -11 -14 -11 -11 -11 -10 -4 -2 1 3
13 12 12 11 12 13 12 9 7 4 -1 -7 3 8 10 8 7 5 5 3 4 4 3 3 1 2 0 -3 -1 1 -4 -7 -12 -10 -7 -13 -12 -9 -4 0 3 -3 -2
14 13 12 12 12 12 12 11 9 1 -3 -5 7 10 10 9 7 5 5 6 7 7 6 6 2 2 4 3 3 3 -1 -5 -11 -7 -8 -12 -11 -11 -8 2 3 4 3
14 14 14 13 13 13 11 12 8 5 1 5 9 10 10 9 7 6 6 7 7 7 6 6 5 3 6 5 3 3 2 1 2 -5 -6 -7 -1 -1 2 4 3 3 1
13 13 13 13 12 11 10 11 8 8 8 7 9 10 9 8 7 6 6 6 7 7 6 6 5 4 5 5 5 5 3 2 1 -3 -7 -3 2 1 2 3 3 2 2
12 13 13 11 11 12 12 10 8 7 7 8 8 8 8 8 7 7 7 6 6 6 5 4 4 4 4 4 4 4 4 3 3 2 -4 -6 -9 -7 2 3 3 3 2
12 11 10 10 10 11 11 10 9 8 8 8 7 8 7 7 7 7 7 6 5 6 5 5 4 3 4 4 4 4 4 3 0 2 -0 -4 -7 -18 -17 -5 2 2 1
12 12 10 10 11 12 11 11 10 9 7 6 5 6 6 6 7 7 7 6 5 5 5 4 2 3 3 4 3 3 3 3 2 1 -2 -6 -1 -9 -13 -10 -2 -2 -1
12 12 11 11 11 11 11 10 10 9 6 6 5 6 5 5 5 6 6 6 5 5 5 4 2 1 3 3 3 3 3 2 2 1 1 -0 -6 -5 -2 1 -1 -1 1
10 11 11 10 10 10 10 10 10 9 7 6 7 6 5 5 5 4 5 6 6 6 5 4 3 2 2 3 3 2 2 1 1 1 -0 -5 -10 -1 -0 0 1 1 1
0 9 10 10 9 10 9 9 9 8 7 7 6 6 6 5 5 4 2 4 5 5 5 4 4 2 2 2 0 -2 0 -1 0 1 1 -2 -11 -2 -0 0 0 0 0
-0 -1 3 9 9 8 8 9 9 8 7 7 7 6 5 4 5 4 3 3 4 4 4 4 3 3 3 2 0 -2 -5 -2 0 0 -0 -1 -8 -1 -0 -0 -1 -1 -1
1 -1 -2 4 6 9 8 8 8 8 8 7 6 5 5 6 4 6 5 3 2 3 2 3 2 2 2 2 1 -1 -3 -7 -3 -0 -1 -6 -9 -5 -2 -2 -1 -1 -2
-1 3 1 2 3 3 5 8 8 8 7 8 7 6 6 6 6 6 5 3 1 0 1 2 2 2 2 1 1 -0 -1 -4 -8 -4 -2 -5 -7 -10 -12 -5 -5 -7 -9
3 0 2 4 3 2 3 6 6 7 7 7 6 6 6 6 5 6 5 4 3 -0 -0 1 1 1 1 0 0 -0 -0 -2 -9 -13 -13 -11 -14 -16 -20 -19 -18 -20 -19
1 4 3 2 1 6 3 3 5 5 7 6 7 6 6 5 5 6 5 4 3 3 0 -0 -0 1 0 0 0 -0 -1 -1 -4 -14 -15 -17 -19 -20 -21 -21 -21 -20 -19
-0 4 4 3 2 4 4 3 3 4 4 6 6 6 5 5 6 5 5 4 4 4 2 -0 -1 -1 -1 -1 -2 -2 -1 -2 -3 -10 -17 -17 -20 -21 -21 -21 -21 -22 -22
-3 -0 2 5 5 4 5 4 4 4 5 3 4 5 4 5 5 6 5 4 4 3 2 2 -1 -1 -2 -3 -3 -2 -2 -2 -4 -8 -14 -18 -20 -21 -21 -21 -22 -22 -24
-4 -3 -1 0 3 5 5 6 5 5 4 5 4 5 5 5 5 5 3 4 4 4 2 2 -0 -1 -2 -3 -3 -3 -3 -3 -6 -13 -14 -19 -20 -21 -21 -21 -21 -22 -23
-3 -2 -2 -1 1 2 4 5 5 6 5 5 5 4 6 5 5 5 4 4 3 3 2 1 -1 -2 -2 -3 -4 -4 -4 -6 -10 -13 -17 -20 -21 -21 -21 -21 -22 -22 -22
-3 -3 -3 -3 -1 1 3 4 4 4 5 5 5 5 5 5 5 6 5 3 3 3 2 1 -2 -2 -3 -3 -4 -5 -7 -9 -11 -17 -17 -20 -20 -19 -21 -22 -21 -21 -22
-3 -3 -4 -4 -3 -3 -1 2 3 4 4 5 5 3 5 5 5 5 5 5 4 3 1 1 -1 -2 -3 -3 -4 -5 -9 -12 -11 -13 -19 -17 -17 -20 -20 -19 -19 -20 -21
-3 -4 -4 -4 -3 -3 -2 -1 2 3 4 4 4 4 4 4 4 4 4 5 5 4 4 2 1 -1 -1 -2 -3 -4 -9 -15 -15 -17 -18 -18 -18 -18 -17 -16 -18 -20 -21
-4 -4 -5 -4 -3 -2 -2 -1 0 2 2 3 4 3 4 4 4 4 3 2 2 3 3 3 3 1 -1 -2 -3 -5 -4 -9 -13 -14 -15 -13 -13 -14 -14 -15 -17 -18 -19
-4 -5 -5 -4 -4 -2 -1 -1 -1 1 2 2 2 3 3 3 4 3 3 2 1 0 1 2 2 1 -1 -2 -4 -4 -6 -9 -10 -13 -13 -14 -12 -12 -12 -12 -15 -15 -16
-4 -5 -5 -5 -4 -3 -1 -1 -1 -0 0 2 2 3 3 2 3 3 2 2 -0 -1 -0 -1 -1 -0 -1 -2 -1 -1 -3 -6 -11 -9 -12 -13 -14 -12 -10 -11 -11 -13 -14

GFSMA_850_dewp_225.txt.gz
Dewpoint
14 14 14 14 14 13 12 12 10 9 9 10 10 10 11 11 10 9 9 9 6 10 9 6 -1 -8 -11 -13 -14 -15 -16 -16 -16 -15 -15 -15 -13 -8 -5 -5 -2 2 4
14 14 14 14 14 13 13 12 11 10 11 11 10 10 10 10 10 10 9 9 8 9 9 7 5 0 -6 -11 -14 -15 -15 -16 -13 -15 -16 -16 -15 -13 -10 -6 -3 1 6
14 14 14 14 14 13 13 13 12 11 10 10 11 9 8 9 7 9 10 9 8 9 8 8 8 8 5 -1 -10 -10 -14 -13 -16 -17 -17 -17 -14 -11 -9 -9 -4 2 4
15 14 14 14 14 13 13 13 13 11 10 9 10 9 7 9 8 9 10 9 7 8 8 7 8 8 7 3 -4 -3 -4 -8 -15 -18 -19 -15 -12 -6 -3 -3 4 4 4
14 14 15 14 14 14 14 13 13 12 11 10 8 9 8 7 8 9 9 9 7 8 7 7 7 7 7 7 5 1 0 -7 -11 -15 -17 -13 -5 -2 -2 -1 2 3 4
14 15 14 14 14 14 14 13 13 13 12 8 8 9 8 9 9 9 8 9 8 7 8 7 7 7 6 6 6 5 6 2 -4 -8 -8 -6 -0 1 -1 2 1 2 4
14 14 14 14 13 13 13 13 13 12 11 10 8 9 8 9 9 9 9 8 8 8 7 7 7 6 6 6 6 6 6 4 2 4 -1 1 4 3 3 4 4 3 2
13 13 13 13 13 13 13 13 12 11 10 11 10 9 8 9 9 9 8 7 8 8 8 7 6 5 5 5 5 6 6 6 5 5 4 4 4 3 2 1 2 3 2
13 12 13 13 13 13 12 12 12 11 11 10 9 9 7 7 8 8 8 8 7 8 8 7 6 4 5 5 5 5 5 5 5 4 4 3 4 3 1 1 1 2 2
9 11 11 12 11 12 12 12 12 12 11 10 9 8 8 7 7 7 8 8 8 8 8 6 6 5 6 4 5 5 5 5 4 4 3 3 3 1 0 2 3 2 2
-1 1 3 8 9 9 10 9 11 11 10 11 9 8 8 7 7 7 7 8 8 8 7 7 7 5 5 4 5 5 5 4 3 2 3 3 4 3 2 2 3 2 3
-3 -1 1 2 3 6 8 9 9 9 8 9 9 8 8 7 7 7 7 6 7 7 7 6 6 5 5 4 5 5 4 4 3 3 3 3 3 2 1 2 1 2 2
3 5 1 -4 -1 -0 2 6 5 8 8 8 9 8 9 8 7 7 6 6 6 6 6 6 6 5 5 5 5 5 4 3 2 2 2 2 1 1 2 2 2 2 1
4 3 5 6 6 3 2 1 4 6 6 8 8 8 9 7 8 7 6 5 4 4 5 5 6 5 6 5 4 5 3 3 2 1 2 2 2 2 2 1 1 1 1
3 4 5 5 5 5 5 4 2 4 5 5 4 6 7 8 7 7 6 6 5 2 3 4 5 5 5 4 4 4 3 3 1 1 1 1 1 1 1 1 1 1 0
3 4 4 4 5 5 4 5 5 4 5 4 4 4 5 5 6 6 6 6 5 4 3 4 4 5 4 4 4 3 2 2 1 1 1 1 1 1 0 1 -0 -1 -1
2 1 -1 1 3 2 3 4 3 4 4 5 6 4 5 6 6 6 6 6 5 4 3 3 4 4 4 3 2 2 2 2 1 1 -0 0 -0 0 0 -0 -1 -3 -3
-4 -0 1 -2 -3 -2 2 5 5 4 4 5 6 6 6 6 6 6 5 5 5 4 4 3 3 4 3 2 1 1 1 -0 0 0 -0 -1 -0 -1 -1 -1 -3 -6 -9
-5 -5 -4 -3 -3 -3 -1 1 5 5 5 4 5 6 6 6 4 6 5 5 5 4 4 4 3 3 3 2 1 1 1 0 0 -0 -1 -1 -1 -1 -1 -2 -7 -13 -15
-4 -2 -4 -3 -2 -2 -1 -1 -0 4 5 5 4 6 5 5 5 4 6 5 5 4 3 3 2 2 2 0 0 -0 -1 -1 -0 -1 -1 -2 -2 -3 -3 -4 -12 -15 -17
-5 -4 -4 -4 -3 -1 -0 0 1 1 1 4 5 4 4 6 5 4 4 5 4 3 3 2 1 1 0 -0 -0 -1 -1 -2 -1 -0 -2 -2 -3 -4 -5 -7 -12 -17 -17
-4 -4 -4 -5 -5 -2 -1 -3 -4 -4 -3 -1 3 5 5 4 5 5 4 4 4 4 3 3 1 0 -0 0 -0 -1 -1 -2 -3 -3 -1 -3 -4 -5 -7 -12 -16 -19 -21
-4 -4 -4 -4 -5 -5 -6 -5 -5 -5 -4 -4 -1 1 4 4 4 4 5 4 4 5 5 3 2 2 0 0 -1 -2 -2 -1 -3 -3 -3 -4 -5 -6 -9 -14 -19 -24 -25
-3 -3 -4 -4 -4 -5 -5 -5 -5 -5 -4 -4 -3 -3 -2 2 4 4 4 4 4 4 4 3 4 3 3 2 1 -0 -2 -3 -4 -4 -3 -4 -6 -8 -12 -18 -22 -25 -25
-2 -2 -2 -2 -3 -5 -5 -6 -5 -4 -3 -2 -2 -1 -0 -0 3 4 3 4 3 3 3 3 3 3 2 2 0 -3 -3 -4 -6 -5 -5 -4 -7 -8 -8 -10 -17 -25 -26
-2 -3 -3 -3 -3 -4 -6 -6 -5 -4 -3 -3 -2 -2 -1 -1 1 2 4 4 3 3 1 0 0 -0 -1 -2 0 1 -1 -4 -5 -6 -6 -5 -8 -8 -9 -9 -13 -17 -21

GFSMA_850_dewp_231.txt.gz
Dewpoint
14 13 12 11 10 11 12 12 12 10 8 7 7 6 4 3 3 8 10 12 10 11 10 9 7 1 2 3 2 2 -4 -7 -5 -3 -2 -4 -4 -5 -5 -7 -10 -12 -9
14 14 15 14 14 14 14 13 12 12 10 8 7 7 7 6 5 7 12 12 10 11 10 9 7 5 -7 -3 -3 -4 -7 -9 -12 -9 -9 -9 -11 -13 -14 -12 -9 -2 5
14 13 13 13 14 14 14 13 12 13 13 11 9 8 8 8 6 7 11 12 11 11 10 9 8 5 -4 -8 -6 -9 -12 -12 -9 -9 -8 -11 -13 -12 -8 -9 -4 5 6
14 13 13 13 14 13 13 14 14 12 11 11 11 9 9 9 8 9 10 12 11 10 10 9 8 6 2 -9 -7 -9 -6 -7 -3 -2 -3 -8 -8 -5 -2 -1 3 4 5
13 13 13 13 13 14 14 14 14 14 12 10 12 11 10 9 9 11 11 12 11 10 9 9 8 6 2 -8 -7 2 -3 2 0 -2 4 -7 -11 -7 -2 3 2 3 4
12 12 12 13 13 13 13 14 13 14 14 12 12 12 12 11 10 11 11 11 11 10 9 9 8 6 3 -4 -8 2 7 5 1 2 4 -2 -3 -2 2 5 5 5 5
1 2 6 9 10 11 12 13 13 14 13 13 13 12 12 12 11 11 12 12 11 10 10 9 8 7 5 -1 -3 4 7 6 4 3 6 5 2 6 4 4 5 4 5
-2 -4 -4 -4 2 11 12 12 13 13 13 13 12 12 11 11 12 12 12 11 10 10 10 9 9 7 5 2 -2 3 6 6 5 6 6 5 5 5 4 4 4 5 5
-2 1 -1 -0 -4 -4 4 11 12 12 12 12 12 12 10 10 10 11 11 10 10 10 10 9 9 8 7 3 3 6 6 6 5 2 6 5 5 4 5 4 4 4 4
-8 -6 2 4 4 1 -2 -1 6 8 11 11 11 11 11 10 9 8 9 10 10 10 9 10 9 8 6 5 4 4 5 6 6 4 4 5 4 3 4 4 4 4 4
-9 -2 3 4 4 4 4 2 -0 0 7 9 10 10 10 10 9 8 8 8 9 10 9 9 9 8 7 7 6 3 4 6 5 5 5 4 4 4 4 3 3 4 2
-5 -3 2 3 5 5 6 6 5 1 -1 1 8 9 9 9 9 9 8 8 8 9 9 9 9 8 8 7 6 5 3 5 5 5 2 4 4 4 4 3 3 3 3
-5 -2 -2 2 3 4 5 6 5 5 4 1 1 3 5 8 9 9 9 8 8 9 9 9 9 9 8 7 7 6 4 6 5 5 1 1 4 4 3 3 2 3 2
-2 0 1 2 2 4 3 3 5 5 2 3 4 3 4 5 9 9 9 8 8 7 8 8 8 8 8 8 7 6 4 5 5 5 3 0 1 3 3 3 2 2 2
0 2 2 1 -1 -1 1 2 3 4 3 4 4 5 4 4 7 8 8 8 8 7 7 7 7 8 8 8 7 6 5 6 5 5 4 1 0 3 3 3 1 2 1
2 1 0 -0 0 0 -3 -4 -1 -2 1 4 2 4 6 5 6 6 7 8 8 7 7 7 7 7 8 7 7 7 5 5 5 5 4 3 0 2 2 3 2 2 1
-1 -2 -4 -3 -3 -3 -2 -2 -3 -3 -3 -1 4 0 2 3 5 6 5 6 7 7 7 6 7 8 7 7 7 7 6 5 6 5 4 3 0 1 2 1 2 2 1
-3 -4 -4 -4 -4 -3 -3 -1 -0 0 0 0 -1 4 4 2 3 6 5 4 4 6 6 7 6 6 6 6 6 6 6 5 5 5 4 3 0 3 1 1 2 1 0
-0 -2 -3 -4 -4 -4 -2 -1 0 0 1 1 1 0 3 1 4 4 5 4 4 5 5 6 6 5 5 5 6 6 6 5 5 4 4 3 -0 2 1 2 2 1 0
-1 -1 -3 -4 -4 -4 -2 -1 -1 -2 -3 -4 -3 -1 1 3 2 4 5 5 5 5 5 5 5 5 5 4 5 4 4 5 4 3 3 2 1 -1 2 1 1 0 0
-1 -2 -1 -2 -3 -4 -3 -3 -4 -5 -6 -6 -6 -5 -3 1 3 4 4 2 5 5 5 5 5 5 3 3 3 4 4 3 4 3 2 2 1 1 2 2 1 0 0
-3 -4 -3 -2 -2 -2 -2 -3 -3 -4 -6 -6 -7 -6 -5 -4 -1 2 3 4 3 4 4 4 4 4 3 3 2 2 2 1 1 1 1 1 1 2 1 1 1 0 0
-3 -5 -3 -3 -3 -3 -3 -3 -4 -5 -5 -6 -6 -5 -5 -5 -5 -4 -1 3 3 4 4 4 4 4 4 3 2 2 1 3 1 1 1 0 1 1 1 1 0 -0 -0
-4 -5 -4 -4 -4 -4 -4 -3 -4 -5 -5 -5 -6 -6 -4 -4 -4 -4 -4 -2 3 3 4 4 4 4 4 3 2 2 2 1 0 1 1 -1 -0 1 1 0 -0 -0 -0
-4 -4 -4 -3 -4 -4 -4 -3 -4 -3 -3 -4 -5 -6 -6 -6 -4 -4 -3 -5 -1 2 3 4 4 3 4 3 3 1 -0 -0 -1 -1 -1 -1 -2 -1 -1 -1 -1 -1 -1
-4 -4 -4 -4 -5 -4 -4 -4 -4 -4 -4 -4 -5 -6 -6 -6 -5 -4 -3 -2 -2 -0 1 2 3 3 3 2 2 2 1 -0 -2 -3 -2 -2 -3 -2 -5 -4 -3 -2 -2

GFSMA_850_dewp_234.txt.gz
Dewpoint
14 14 14 13 12 10 11 12 12 11 11 11 9 7 6 4 2 2 5 11 10 12 11 10 11 9 7 0 1 -0 -1 -1 -1 -1 1 3 -0 -3 -1 0 1 1 2
15 15 15 15 15 14 14 13 12 12 12 12 11 10 7 7 4 3 3 9 10 11 11 10 10 10 7 5 -5 -2 -4 -3 -3 -3 -6 -7 -5 -5 -7 -7 -10 -11 -7
14 14 14 14 14 14 14 14 14 14 13 12 12 11 10 8 7 5 4 5 9 11 11 9 10 10 8 6 -0 -6 -4 -4 -8 -6 -7 -10 -11 -10 -8 -4 -1 2 2
12 13 13 14 13 13 14 14 14 14 14 13 12 11 11 10 8 7 6 5 10 12 12 11 10 10 9 7 3 -8 -8 -8 -12 -12 -5 -6 -12 -11 -7 -0 7 6 8
7 8 8 9 10 12 13 13 13 13 13 13 14 12 11 11 9 8 8 7 8 11 12 11 10 10 9 8 6 -2 -10 -11 -10 -10 -0 -4 -4 -6 -0 5 7 7 7
-5 -3 -1 0 2 2 6 12 13 13 13 13 12 13 13 12 11 9 8 9 9 11 12 11 11 10 9 8 6 -0 -10 -11 -9 -1 -3 -7 -1 4 5 5 4 5 5
-6 -6 -6 -6 -5 -4 -3 -4 10 13 12 13 13 13 13 13 12 11 10 10 10 10 11 11 10 10 9 8 6 -0 -8 -9 0 2 2 -0 -9 -2 5 4 3 4 4
-15 -16 -13 -8 -6 -2 0 -0 -3 2 10 12 12 12 12 12 12 12 12 11 10 10 12 12 11 10 9 8 6 3 1 -4 -0 4 4 1 -5 -0 5 5 5 5 5
-19 -15 -13 -14 -6 -2 2 3 3 2 -1 2 11 12 12 11 11 11 12 12 12 11 11 11 11 10 9 8 6 6 5 6 1 5 6 4 2 3 4 4 4 5 5
-21 -17 -11 -10 1 4 4 5 5 5 4 0 1 6 10 11 11 10 10 11 11 11 11 11 11 10 9 8 7 5 6 7 6 5 6 5 6 5 5 4 5 4 4
-22 -19 -12 -10 -8 2 3 5 6 6 6 6 2 1 6 7 10 10 10 10 10 10 10 10 10 10 9 9 7 5 5 6 6 6 6 5 5 5 5 4 4 4 4
-15 -13 -7 -7 -6 -4 2 3 3 5 6 6 6 3 2 3 3 4 9 9 10 10 9 11 10 8 9 9 8 7 5 6 6 5 6 5 4 4 4 4 4 4 4
-1 -3 -0 -0 1 0 2 1 1 1 3 4 5 5 5 4 3 4 4 8 9 9 9 10 8 8 10 9 8 7 5 5 5 5 5 5 4 3 4 4 3 4 3
1 2 2 2 2 2 0 -2 -2 -0 1 1 2 3 4 4 4 5 5 6 8 8 8 9 9 9 9 9 9 7 6 5 4 5 5 4 4 3 3 3 3 3 2
1 1 1 1 -1 -2 -2 0 -1 -4 -4 -2 1 1 4 2 3 5 4 4 8 7 7 9 8 8 9 9 9 8 7 5 5 5 4 3 4 4 1 -3 2 2 2
0 -1 -2 -4 -5 -6 -5 -4 -3 -3 -4 -2 -2 -0 4 2 1 3 4 6 5 8 7 8 8 8 8 9 9 8 7 6 5 5 4 3 5 4 2 3 2 2 2
-1 -2 -4 -4 -5 -5 -5 -5 -3 -1 -1 -1 2 1 2 4 -0 -0 3 4 4 4 7 7 8 8 8 8 9 8 8 7 6 5 4 4 4 4 3 3 2 1 2
-0 -0 -1 -3 -4 -5 -4 -4 -3 -1 -1 -0 -1 -0 1 2 3 1 -1 4 4 4 3 6 7 7 7 7 8 8 8 7 6 6 5 4 4 3 2 2 2 1 2
-1 -1 -1 -3 -4 -5 -4 -4 -2 -2 -3 -5 -5 -5 -3 0 2 1 -1 3 5 5 3 5 6 6 6 7 7 8 7 6 6 6 5 5 4 3 1 2 2 1 1
-1 -1 -2 -3 -2 -3 -3 -3 -4 -4 -5 -6 -6 -6 -5 -2 1 2 1 1 4 4 5 4 4 5 6 6 6 5 6 6 6 6 5 5 4 3 2 2 2 2 2
-3 -2 -2 -3 -2 -3 -2 -3 -3 -4 -5 -5 -6 -6 -4 -3 -1 1 2 1 3 3 5 5 4 4 4 5 5 5 5 4 5 6 5 4 4 3 3 2 1 1 2
-3 -3 -3 -3 -3 -3 -4 -4 -4 -4 -4 -4 -5 -6 -6 -5 -3 -3 1 2 3 3 4 4 4 4 3 4 5 4 3 3 2 3 4 3 3 2 2 2 2 0 2
-4 -4 -3 -4 -3 -4 -4 -4 -4 -4 -4 -4 -5 -6 -6 -6 -5 -4 -3 -1 1 2 3 3 3 3 4 3 4 4 3 3 3 2 3 3 3 2 2 2 1 2 1
-4 -5 -4 -4 -4 -5 -4 -4 -4 -4 -4 -4 -4 -4 -6 -6 -6 -4 -4 -3 -2 2 2 3 4 4 3 4 3 3 3 2 2 2 3 1 2 2 2 1 1 2 1
-5 -5 -4 -4 -5 -5 -5 -5 -4 -4 -4 -5 -4 -5 -5 -6 -6 -5 -5 -5 -4 -3 2 3 2 3 3 4 3 3 2 1 -0 -0 1 0 -0 1 0 1 2 1 1
-5 -5 -5 -5 -5 -5 -5 -5 -5 -5 -5 -6 -6 -6 -6 -6 -5 -6 -6 -5 -5 -5 -4 1 2 2 3 3 3 3 2 1 -0 -1 -1 -0 -0 -0 -2 -0 0 1 1

GFSMA_850_dewp_237.txt.gz
Dewpoint
15 15 15 15 15 14 13 12 12 12 12 12 11 11 11 7 4 2 2 7 11 11 11 10 10 10 10 9 5 3 -2 -2 6 8 9 10 9 8 4 1 3 5 4
14 14 14 14 14 14 14 14 14 14 14 13 12 12 11 11 8 5 2 3 5 8 11 10 10 10 10 10 7 2 -1 -4 -4 -3 -2 0 2 1 -4 -3 -3 1 2
13 13 13 13 13 13 13 13 13 13 14 14 13 12 12 12 12 9 6 3 4 5 10 11 12 10 10 10 8 5 -0 -5 -6 -5 -6 -8 -9 -8 -5 -6 -8 -9 -2
8 8 9 10 10 11 11 13 13 13 13 13 13 13 13 13 13 12 10 6 4 5 6 10 10 10 10 10 9 7 4 -5 -5 -7 -9 -9 -11 -12 -13 -12 -10 -12 -5
-4 -3 -2 -2 -2 1 3 4 8 12 13 13 13 13 12 12 12 13 12 10 7 5 5 7 9 11 11 10 10 8 5 -3 -7 -6 -10 -12 -9 -12 -16 -8 6 5 7
-9 -9 -9 -9 -9 -7 -6 -5 -2 -0 5 10 12 12 12 12 12 11 12 13 10 6 6 6 9 11 12 11 10 9 7 3 -6 -7 -11 -12 -11 -4 -1 -5 4 7 6
-14 -15 -17 -18 -18 -17 -15 -9 -5 -2 -4 -1 3 10 13 11 12 12 12 12 12 9 7 7 8 11 12 11 11 9 8 4 -4 -8 -10 -8 -12 0 2 5 5 5 6
-16 -21 -25 -24 -22 -21 -19 -15 -10 -0 2 0 2 1 5 11 10 12 12 12 12 12 9 8 8 10 11 11 11 10 8 5 3 -5 -6 -9 -4 2 5 4 5 5 4
-16 -18 -22 -20 -16 -14 -13 -2 2 3 6 5 4 5 4 8 7 9 11 12 12 12 12 10 9 10 10 11 11 10 9 5 5 4 4 -2 -7 0 4 5 3 4 3
-20 -19 -19 -14 -13 -10 -10 -7 2 3 4 5 5 5 6 5 4 4 6 9 11 11 11 11 11 10 10 11 11 10 9 6 5 6 5 5 3 4 4 3 5 4 5
-10 -6 -5 -5 -7 -6 -6 -4 -0 2 2 3 3 4 6 6 5 3 4 4 5 7 11 11 11 11 11 11 11 10 9 7 6 4 3 3 3 5 5 5 4 5 4
-3 -3 -2 -1 -0 0 1 2 1 0 -0 -1 0 1 2 4 5 5 5 4 4 3 4 11 11 11 11 11 11 10 9 8 7 5 4 3 5 5 5 5 4 5 4
0 1 2 1 -2 -2 0 1 -0 -1 -2 -3 -4 -3 0 1 4 5 5 4 3 3 3 6 10 11 11 11 11 11 10 8 7 6 6 6 6 6 4 5 5 4 4
0 1 -0 -2 -2 -6 -7 -7 -7 -7 -6 -2 -4 -4 -5 -1 2 3 4 4 5 5 4 4 9 10 10 11 11 10 10 8 7 7 6 6 5 6 5 4 4 4 3
-1 -1 -2 -3 -4 -5 -6 -7 -7 -7 -7 -5 -4 -3 -2 -3 1 3 3 2 2 4 5 3 5 9 10 9 10 10 9 9 7 7 6 6 5 5 5 4 3 3 3
-1 -1 -2 -2 -3 -4 -5 -5 -5 -5 -5 -4 -2 -1 1 -1 -2 2 4 2 2 2 5 4 3 4 8 9 10 9 9 9 7 7 6 6 6 4 5 4 3 3 2
-1 -1 -1 -1 -2 -2 -4 -5 -5 -5 -5 -5 -3 -3 -3 -2 -2 1 2 3 1 2 4 3 2 3 5 8 9 8 9 9 7 7 6 5 6 5 3 4 2 -1 -2
-1 -1 -1 -1 -1 -4 -5 -4 -5 -4 -4 -5 -5 -6 -6 -5 -4 -1 0 2 2 0 3 4 4 3 4 7 8 8 8 8 7 7 6 6 5 5 3 4 3 1 1
-1 -1 -1 -2 -3 -4 -3 -3 -2 -3 -4 -5 -5 -6 -6 -6 -4 -1 0 1 1 0 2 3 4 3 3 6 7 8 8 8 7 7 6 6 5 5 5 4 3 2 1
-1 -2 -2 -4 -4 -4 -3 -3 -3 -3 -3 -5 -5 -5 -6 -5 -3 -2 -1 0 1 1 1 3 4 3 3 5 6 6 6 7 6 7 6 6 5 5 5 4 3 2 1
-3 -4 -5 -5 -6 -4 -4 -4 -4 -4 -3 -3 -4 -5 -5 -5 -4 -2 -2 -1 1 2 2 3 3 4 3 3 5 6 6 6 6 7 6 6 5 5 5 4 4 2 1
-4 -5 -5 -6 -6 -4 -4 -5 -5 -4 -3 -3 -4 -5 -5 -5 -5 -5 -4 -3 -1 1 1 1 3 4 3 2 4 5 5 5 5 5 5 5 5 5 5 4 3 2 2
-6 -6 -6 -7 -5 -5 -5 -5 -5 -4 -4 -4 -4 -5 -6 -6 -6 -6 -6 -4 -3 -0 0 1 2 3 3 4 3 5 5 5 5 4 5 5 5 5 4 4 3 2 2
-7 -6 -6 -5 -5 -5 -5 -5 -5 -5 -5 -4 -5 -5 -6 -7 -7 -6 -6 -6 -5 -3 -1 0 2 3 3 3 3 3 4 4 4 4 5 3 3 3 4 4 3 2 2
-11 -6 -5 -5 -5 -5 -5 -5 -5 -5 -5 -5 -5 -5 -6 -8 -7 -7 -7 -6 -7 -5 -3 -1 1 2 3 3 2 3 4 3 3 3 3 3 2 2 2 3 3 3 2
-11 -11 -5 -5 -6 -6 -6 -6 -6 -6 -5 -5 -6 -6 -6 -6 -7 -7 -7 -6 -7 -7 -6 -4 -1 2 2 2 1 2 3 3 2 2 2 2 1 2 1 2 2 3 2

GFSMA_850_dewp_243.txt.gz
Dewpoint
13 12 12 13 12 12 12 12 13 13 13 13 13 12 12 12 12 12 11 10 7 5 4 6 10 11 10 9 9 8 6 5 7 10 10 10 10 10 10 10 11 10 10
14 13 13 13 12 12 13 12 12 13 12 13 13 13 13 13 12 13 12 12 11 7 5 4 7 10 10 10 10 9 8 7 6 7 10 10 10 10 10 10 9 10 10
12 11 10 10 10 10 10 10 10 10 11 12 13 13 12 12 12 12 12 13 12 11 9 6 5 7 10 11 10 9 10 8 7 6 6 8 9 10 10 10 8 8 9
4 5 4 3 2 2 4 4 5 6 7 7 10 12 12 12 13 13 12 12 13 12 12 11 7 5 8 10 11 10 10 10 9 7 6 6 9 10 9 9 6 4 6
-8 -8 -9 -9 -9 -9 -10 -10 -10 -9 -8 -6 -4 2 8 10 11 11 11 12 12 11 13 12 12 9 6 8 9 11 10 10 10 8 7 5 3 7 10 8 -5 -3 5
-19 -20 -21 -21 -20 -19 -17 -17 -17 -16 -15 -14 -13 -12 -9 -6 -4 0 5 9 10 10 10 12 12 12 11 8 8 9 11 11 9 10 8 6 3 0 5 6 -2 -6 -5
-27 -28 -28 -27 -26 -25 -23 -23 -24 -25 -24 -21 -19 -13 -19 -17 -14 -10 -4 5 10 11 12 12 10 11 12 12 9 9 10 12 11 9 9 7 6 -2 -4 -0 1 -7 -6
-28 -28 -24 -20 -20 -22 -23 -23 -22 -21 -20 -14 3 3 2 -1 -5 1 4 6 7 9 10 9 11 11 11 11 11 10 9 10 12 12 9 9 7 0 -2 -7 -1 -1 -8
-26 -14 -9 -8 -7 -10 -14 -16 -15 -10 -5 -11 -3 2 3 2 4 -5 -6 -5 -3 -2 -0 3 8 9 10 11 11 10 11 11 10 12 11 10 9 5 -2 -4 -9 -1 -4
-10 -5 -5 -5 -5 -4 -6 -7 -7 -5 -4 -5 -4 -1 -2 3 3 1 1 -8 -8 -10 -10 -8 -5 -0 2 5 9 10 11 11 11 10 12 11 10 8 2 -4 -9 -7 0
-5 -3 -2 -3 -2 -1 -2 -2 -2 -3 -2 -2 -3 -4 -6 -6 -6 3 1 -1 -10 -8 1 -3 -6 -2 -2 -1 1 7 8 10 11 12 11 12 10 9 6 -5 -6 -5 6
-5 -4 -3 -3 -4 -4 -4 -4 -4 -3 -2 -4 -3 -3 -4 0 1 2 1 1 1 -0 -9 -8 1 -2 -6 -3 -1 -0 2 4 8 10 11 11 11 10 8 -3 -4 1 5
-10 -5 -3 -4 -5 -6 -6 -6 -6 -7 -6 -6 -6 -6 -7 -6 -4 -4 -1 -1 1 -1 2 1 -5 -7 3 2 -1 -1 -0 2 3 6 10 11 11 11 9 1 1 3 4
-11 -5 -3 -3 -3 -4 -4 -4 -4 -5 -5 -6 -6 -6 -6 -7 -6 -4 -1 1 0 -0 0 0 1 1 -2 1 1 -0 3 2 2 4 7 10 11 11 9 3 6 5 6
-6 -3 -2 -2 -2 -2 -3 -3 -4 -4 -5 -6 -7 -6 -6 -7 -7 -7 -5 -1 -0 0 -2 -10 0 0 -1 1 -0 -1 -1 1 3 3 4 11 11 11 10 5 5 3 6
-7 -5 -3 -1 -1 -2 -3 -4 -4 -4 -5 -5 -7 -8 -9 -8 -7 -6 -6 -6 -4 -1 -0 -1 0 1 0 1 0 0 0 -1 2 4 4 8 11 10 10 6 6 5 6
-9 -7 -5 -3 -1 -2 -2 -3 -4 -4 -6 -9 -9 -7 -7 -7 -6 -6 -6 -5 -2 -1 -1 -5 -1 -0 -0 0 -1 -1 0 2 3 4 4 3 9 10 9 7 6 6 6
-11 -7 -6 -4 -2 -2 -2 -2 -3 -4 -8 -7 -8 -9 -6 -7 -6 -6 -6 -4 -2 -2 -2 -2 -3 -2 -1 1 0 1 2 2 3 4 5 4 8 10 9 7 7 5 5
-12 -10 -7 -4 -2 -2 -2 -2 -2 -5 -6 -6 -7 -9 -6 -5 -4 -5 -5 -3 -3 -3 -3 -3 -4 -3 -2 0 0 1 2 3 3 4 5 4 5 9 9 9 7 6 4
-11 -12 -12 -11 -5 -2 -2 -2 -3 -6 -6 -6 -5 -5 -4 -4 -4 -6 -4 -4 -4 -5 -5 -4 -4 -4 -3 -1 -0 0 1 3 3 5 6 4 5 8 9 8 7 6 5
-7 -9 -11 -13 -13 -8 -5 -5 -5 -5 -5 -5 -4 -4 -5 -4 -5 -5 -5 -5 -5 -5 -5 -4 -4 -5 -4 -1 -1 -0 0 1 2 5 6 6 6 8 8 8 6 6 5
-6 -6 -7 -9 -12 -13 -10 -6 -5 -5 -5 -4 -5 -4 -5 -4 -4 -5 -5 -5 -5 -5 -6 -5 -5 -4 -5 -3 -1 -0 -0 1 2 4 6 6 5 6 7 7 6 6 6
-4 -4 -5 -7 -9 -10 -13 -9 -5 -5 -5 -5 -5 -5 -5 -5 -5 -5 -5 -7 -7 -6 -6 -6 -6 -6 -5 -3 -2 -0 0 0 1 3 6 6 5 6 6 7 6 6 6
-2 -3 -3 -5 -7 -8 -11 -10 -5 -6 -6 -5 -5 -5 -5 -5 -5 -5 -6 -7 -7 -7 -7 -7 -6 -6 -5 -4 -1 -0 1 1 1 3 5 5 5 5 5 6 6 6 5
-3 -3 -2 -3 -6 -8 -9 -11 -6 -6 -6 -5 -6 -6 -6 -5 -5 -6 -6 -6 -8 -8 -7 -7 -7 -6 -6 -4 -2 -0 1 1 1 3 5 6 5 5 5 5 6 5 5
-4 -4 -3 -4 -5 -7 -7 -8 -7 -6 -6 -6 -6 -6 -6 -5 -6 -6 -6 -6 -7 -7 -8 -8 -7 -7 -6 -5 -3 0 1 1 0 3 4 5 5 5 4 4 6 6 5